Vorticity
nan nan nan nan nan nan nan nan nan nan nan nan nan nan nan nan nan nan nan nan nan nan nan nan nan nan nan nan nan nan nan nan nan nan nan nan nan nan nan nan nan nan nan
nan 9 9 9 10 10 9 8 8 7 8 9 9 8 9 10 10 8 8 9 9 8 9 9 8 8 8 8 7 8 10 9 9 8 9 12 10 10 10 10 10 11 nan
nan 10 9 9 9 8 7 8 8 9 9 9 9 9 8 9 11 8 7 10 10 10 10 10 10 7 8 8 8 8 8 8 9 12 9 10 10 9 11 11 11 11 nan
nan 10 9 9 9 9 8 8 9 10 9 10 9 9 9 9 11 11 10 10 11 11 11 10 10 9 5 4 9 8 8 9 9 10 10 9 8 8 9 10 9 11 nan
nan 10 10 10 10 8 7 9 10 9 9 10 8 8 11 13 6 5 7 11 11 11 11 11 12 9 8 0 1 3 6 8 8 10 9 8 7 9 8 10 11 8 nan
nan 9 8 9 9 8 9 9 9 9 9 9 9 10 11 7 -1 4 9 15 14 13 13 13 13 12 9 12 7 8 7 0 1 6 9 8 10 8 9 9 13 10 nan
nan 9 9 9 8 9 9 9 9 10 10 10 11 10 11 7 5 10 12 14 13 14 14 13 12 17 15 18 17 16 11 15 14 10 13 9 9 11 11 9 9 12 nan
nan 9 9 9 8 9 10 10 10 9 10 11 11 11 12 8 6 9 16 16 12 12 15 15 12 12 14 7 11 17 16 16 12 9 12 6 4 6 9 12 8 6 nan
nan 9 7 8 9 9 9 9 11 10 10 12 11 11 9 5 5 9 18 19 14 14 15 16 8 14 10 4 9 12 10 10 13 13 11 13 9 5 -2 5 13 6 nan
nan 8 9 10 10 9 10 11 11 11 12 11 10 11 9 8 11 10 15 16 14 16 19 19 15 11 8 7 5 11 11 12 10 11 20 26 13 20 18 5 8 7 nan
nan 9 10 11 11 11 9 10 10 11 12 10 12 12 14 12 6 7 18 20 18 20 20 16 18 9 11 15 10 6 7 8 13 10 14 14 13 17 21 16 10 9 nan
nan 9 10 11 11 10 10 11 12 13 12 12 13 13 14 9 5 7 9 14 26 38 24 13 13 14 11 13 14 12 7 10 16 12 12 10 11 13 16 15 11 9 nan
nan 10 10 12 10 9 12 13 13 13 12 11 13 13 12 11 5 4 17 17 28 30 19 14 10 12 11 11 13 21 25 19 9 10 11 11 13 12 11 9 9 10 nan
nan 10 10 9 11 13 14 12 11 11 11 12 11 11 12 10 12 14 18 12 14 16 15 12 13 13 15 14 11 14 23 17 12 10 9 9 12 13 10 7 9 9 nan
nan 9 10 12 12 13 12 10 9 7 8 12 10 11 11 8 4 7 19 22 16 13 13 11 12 12 12 11 9 10 12 16 15 11 11 12 10 9 10 11 11 10 nan
nan 8 10 12 13 12 10 9 7 7 8 8 11 20 10 3 7 11 13 14 16 24 18 10 11 12 11 10 9 9 9 14 13 14 12 11 9 9 10 11 12 12 nan
nan 6 11 11 12 11 12 11 12 11 9 8 9 10 10 12 11 11 11 12 16 20 16 12 11 10 11 12 11 9 11 10 10 10 12 11 10 12 11 11 11 10 nan
nan 11 15 12 11 10 11 11 12 10 12 10 7 4 7 10 11 11 14 18 13 11 13 10 10 11 13 13 12 10 10 8 12 12 11 11 10 10 10 11 12 11 nan
nan 11 11 13 10 11 13 12 12 11 12 11 10 7 5 7 10 11 19 18 10 10 10 11 11 11 11 12 14 15 13 10 9 10 10 11 12 10 10 12 14 15 nan
nan 5 15 16 12 13 12 12 12 12 12 12 10 10 10 10 11 11 12 11 11 11 11 11 10 11 11 11 10 12 15 14 10 10 11 11 11 11 12 12 12 12 nan
nan 7 11 16 12 12 12 12 12 12 11 11 10 2 10 20 11 10 10 11 11 11 11 11 11 11 11 11 11 11 10 15 15 11 10 11 10 8 9 10 12 12 nan
nan 10 12 11 11 11 12 12 12 11 11 11 10 3 10 18 11 12 13 10 11 12 11 11 11 11 11 11 11 11 11 11 14 14 13 12 10 10 9 10 11 11 nan
nan 11 11 11 9 12 14 13 12 10 10 11 11 10 12 12 10 10 12 12 12 12 12 12 12 11 11 11 12 12 11 11 10 14 16 14 11 11 10 11 10 11 nan
nan 11 12 12 12 12 12 13 11 10 12 13 12 11 10 11 10 11 13 12 11 13 12 12 13 11 10 10 11 11 11 9 12 11 14 16 13 12 9 10 12 12 nan
nan 11 12 11 12 11 11 12 12 12 11 12 12 14 11 10 10 12 13 12 11 11 11 14 12 11 11 15 17 18 16 13 10 8 13 17 16 12 11 13 14 13 nan
nan nan nan nan nan nan nan nan nan nan nan nan nan nan nan nan nan nan nan nan nan nan nan nan nan nan nan nan nan nan nan nan nan nan nan nan nan nan nan nan nan nan nan
CAPE
0 0 0 0 0 0 0 0 0 0 0 0 0 0 0 0 0 0 0 0 0 0 0 0 0 0 0 0 0 0 0 0 0 0 0 0 0 0 0 0 0 0 11
0 0 0 0 0 0 0 0 0 0 0 0 0 0 0 0 0 0 0 0 0 0 0 0 0 0 0 0 0 0 0 0 0 0 0 0 0 0 0 0 0 0 11
0 0 0 0 0 0 0 0 0 0 0 0 0 0 0 0 0 0 0 0 0 0 0 0 0 0 0 0 0 2 0 0 0 0 0 0 0 0 2 0 0 0 20
0 0 0 0 0 0 0 0 0 0 0 0 0 0 0 0 0 0 0 0 0 0 0 0 0 0 0 0 0 0 0 0 0 1 8 11 10 0 1 0 0 0 2
0 0 0 0 0 0 0 0 0 0 0 0 0 0 0 0 0 0 0 0 0 0 0 0 0 5 43 44 2 0 0 0 0 0 6 1 0 18 5 0 20 0 0
0 0 0 0 0 0 0 0 0 0 0 0 0 0 0 0 10 31 33 22 19 13 3 6 5 49 84 100 113 125 8 0 0 0 0 19 0 12 19 18 14 57 55
0 0 0 0 0 0 0 0 0 0 0 0 0 0 0 0 18 45 80 58 40 28 13 2 17 35 37 17 30 88 70 91 76 3 2 7 2 0 17 18 24 28 4
0 0 0 0 0 0 0 0 0 0 0 0 0 0 1 2 40 80 103 57 45 17 20 4 13 22 10 13 1 0 0 0 0 0 8 1 2 3 40 24 6 0 0
0 0 0 0 0 0 0 0 0 0 0 0 2 5 4 2 27 86 66 22 25 6 10 1 4 14 16 72 38 2 0 0 1 49 54 17 6 59 34 40 2 17 0
0 0 0 0 0 0 0 0 0 0 4 8 5 4 10 4 9 66 81 43 27 22 30 0 31 20 24 61 22 1 3 0 5 0 3 40 18 6 129 29 12 31 0
0 0 0 0 0 0 0 0 1 2 6 4 4 2 2 3 30 59 79 28 20 4 3 0 1 36 52 63 73 1 0 2 17 4 3 12 24 16 53 12 1 2 0
0 0 0 0 0 0 0 0 0 5 7 4 4 5 21 12 17 38 76 101 90 26 0 2 1 12 24 48 36 44 62 50 0 0 0 8 11 0 2 0 0 0 0
0 0 0 0 0 0 0 1 6 8 8 5 5 31 23 6 12 47 82 86 61 4 0 0 0 0 36 17 53 87 68 43 0 0 0 0 0 0 0 0 0 0 0
0 0 0 0 3 1 1 6 11 7 5 7 24 17 18 8 26 18 21 14 7 21 22 1 6 18 28 14 4 0 12 22 0 0 0 0 0 0 0 0 0 0 0
0 0 0 0 0 1 6 10 16 7 28 31 26 35 22 17 44 71 39 29 11 13 5 0 0 0 0 0 0 0 1 10 3 0 0 0 0 0 0 0 0 0 0
0 2 0 0 4 4 11 5 22 35 45 43 45 66 40 72 55 54 52 33 29 17 0 0 0 0 0 0 0 0 7 13 0 0 0 0 0 0 0 0 0 0 0
0 0 5 3 3 11 10 8 6 7 32 34 43 61 29 41 40 48 42 34 36 10 1 0 0 0 0 0 0 0 0 0 0 0 0 0 0 0 0 0 2 0 1
0 8 0 3 12 11 6 6 6 7 4 8 18 60 34 31 27 23 30 13 4 6 10 11 6 4 3 1 0 0 0 0 0 0 0 0 0 0 1 5 5 0 0
0 0 2 9 10 16 6 5 6 5 4 11 13 27 26 12 8 11 14 10 6 5 4 5 13 12 9 4 4 0 0 0 0 0 0 0 0 1 22 16 4 5 8
0 5 7 9 7 4 5 6 6 3 5 12 18 9 12 0 0 1 7 9 7 6 5 12 14 16 13 10 7 3 3 4 1 0 0 0 0 0 4 21 8 18 4
0 0 13 7 6 4 5 5 4 4 7 13 30 7 49 0 0 1 5 7 6 5 4 14 9 15 15 11 9 7 2 1 1 0 0 0 3 3 0 23 14 40 0
0 1 5 9 7 5 5 4 3 4 10 21 4 4 35 1 10 10 13 15 5 8 7 12 5 12 17 14 10 8 6 2 0 1 0 0 0 0 0 7 16 25 1
0 0 4 10 7 21 4 3 3 6 3 0 5 4 12 14 13 5 7 8 5 5 6 5 5 5 14 14 11 9 5 4 1 0 0 0 0 1 0 5 12 9 8
1 1 5 9 9 8 4 3 3 8 13 9 0 6 7 16 13 5 4 7 6 4 4 2 2 3 4 6 10 8 7 4 3 0 0 1 0 0 0 0 1 3 3
2 3 3 11 8 8 5 4 3 3 6 17 15 14 15 6 6 3 4 5 6 4 4 2 1 2 4 5 5 5 3 1 2 0 0 0 0 1 3 5 7 20 21
1 1 2 12 6 6 6 5 3 5 5 16 7 14 15 4 4 3 5 6 4 3 2 0 0 0 2 1 1 1 0 0 0 0 0 0 1 2 3 4 2 0 0